GW5678 Weather Reports


Display with metric or nautical units.
time (UTC)temp
F
wind
direction
speed
MPH
gust
MPH
rain 1hr
in
rain 24hr
in
rain mn
in
humidity
%
barometer
mb
20260508023205 48 55 4.0 5.0 0.00 0.01 0.01 61 1012.3
20260508022701 49 101 4.0 4.0 0.00 0.01 0.01 60 1012.0
20260508022158 50 108 2.0 3.0 0.00 0.01 0.01 59 1012.1
20260508021654 50 114 0.0 3.0 0.00 0.01 0.01 56 1012.2
20260508021150 50 29 3.0 3.0 0.00 0.01 0.01 55 1011.9
20260508020648 51 44 1.0 3.0 0.00 0.01 0.01 55 1012.1
20260508020145 51 68 2.0 3.0 0.00 0.01 0.01 54 1012.0
20260508015642 51 29 0.0 3.0 0.00 0.01 0.01 54 1011.9
20260508015139 50 170 3.0 7.0 0.00 0.01 0.01 54 1011.7
20260508014636 51 96 0.0 3.0 0.00 0.01 0.01 59 1011.8
20260508014132 51 28 3.0 4.0 0.00 0.01 0.01 56 1011.5
20260508013628 51 29 3.0 4.0 0.00 0.01 0.01 55 1011.6
20260508013125 51 304 0.0 2.0 0.00 0.01 0.01 56 1011.6
20260508012623 52 38 1.0 2.0 0.00 0.01 0.01 53 1011.4
20260508012120 53 69 2.0 4.0 0.00 0.01 0.01 51 1011.2
20260508011618 53 95 1.0 2.0 0.00 0.01 0.01 50 1011.1
20260508011115 54 96 4.0 5.0 0.00 0.01 0.01 48 1011.0
20260508010611 55 103 5.0 6.0 0.00 0.01 0.01 47 1011.0
20260508010110 54 122 6.0 6.0 0.00 0.01 0.01 48 1010.9
20260508005606 54 140 6.0 6.0 0.00 0.01 0.01 49 1010.9
20260508005102 54 60 3.0 4.0 0.00 0.01 0.01 49 1010.7
20260508004558 55 147 2.0 5.0 0.00 0.01 0.01 49 1010.7
20260508004055 56 84 2.0 3.0 0.00 0.01 0.01 47 1010.6
20260508003552 56 125 5.0 5.0 0.00 0.01 0.01 45 1010.6
20260508003049 57 124 4.0 10.0 0.00 0.01 0.01 44 1010.6
20260508002545 57 127 5.0 9.0 0.00 0.01 0.01 43 1010.4
20260508002043 58 123 8.0 10.0 0.00 0.01 0.01 42 1010.3
20260508001538 58 111 9.0 12.0 0.00 0.01 0.01 42 1010.4
20260508001035 59 110 9.0 9.0 0.00 0.01 0.01 43 1010.2
20260508000531 59 120 6.0 11.0 0.00 0.01 0.01 41 1010.1
20260508000029 59 127 8.0 12.0 0.00 0.01 0.01 41 1010.1
20260507235525 60 146 11.0 12.0 0.00 0.01 0.01 42 1009.8
20260507235022 60 135 10.0 16.0 0.00 0.01 0.01 39 1010.0
20260507234519 61 143 8.0 12.0 0.00 0.01 0.01 40 1009.8
20260507234015 61 129 5.0 11.0 0.00 0.01 0.01 40 1009.6
20260507233512 62 149 9.0 17.0 0.00 0.01 0.01 38 1009.6
20260507233011 62 133 9.0 19.0 0.00 0.01 0.01 40 1009.7
20260507232506 61 135 10.0 17.0 0.00 0.01 0.01 42 1009.6
20260507232004 62 125 7.0 14.0 0.00 0.01 0.01 42 1009.5
20260507231500 63 141 13.0 19.0 0.00 0.01 0.01 39 1009.4
20260507230957 63 120 11.0 16.0 0.00 0.01 0.01 40 1008.9
20260507230454 63 122 9.0 13.0 0.00 0.01 0.01 40 1008.7
20260507225949 63 107 14.0 19.0 0.00 0.01 0.01 40 1008.9
20260507225446 64 127 11.0 17.0 0.00 0.01 0.01 38 1008.8
20260507224942 64 133 12.0 13.0 0.00 0.01 0.01 40 1008.9
20260507224438 65 148 13.0 15.0 0.00 0.01 0.01 40 1008.7
20260507223935 65 133 13.0 15.0 0.00 0.01 0.01 41 1008.5
20260507223431 65 109 8.0 14.0 0.00 0.01 0.01 41 1008.5
20260507222928 65 118 10.0 14.0 0.00 0.01 0.01 42 1008.6
20260507222425 65 134 15.0 18.0 0.00 0.01 0.01 39 1008.3
20260507221922 66 115 13.0 19.0 0.00 0.01 0.01 38 1008.3
20260507221418 66 151 8.0 14.0 0.00 0.01 0.01 37 1008.0
20260507220914 66 141 10.0 15.0 0.00 0.01 0.01 40 1008.2
20260507220412 65 122 12.0 19.0 0.00 0.01 0.01 40 1008.0
20260507215908 66 132 12.0 18.0 0.00 0.01 0.01 40 1008.0
20260507215405 66 103 8.0 21.0 0.00 0.01 0.01 42 1007.9
20260507214902 66 73 17.0 18.0 0.00 0.01 0.01 45 1007.4
20260507214400 66 55 4.0 8.0 0.00 0.01 0.01 61 1007.5
20260507213855 66 88 5.0 9.0 0.00 0.01 0.01 66 1007.7
20260507213352 64 103 4.0 8.0 0.00 0.01 0.01 67 1007.6
20260507212849 63 52 7.0 11.0 0.00 0.01 0.01 68 1007.6
20260507212345 62 69 4.0 7.0 0.00 0.01 0.01 69 1007.6
20260507211842 63 61 10.0 12.0 0.00 0.01 0.01 65 1007.4
20260507211339 65 78 7.0 11.0 0.00 0.01 0.01 64 1007.5
20260507210835 66 48 6.0 9.0 0.00 0.01 0.01 63 1007.4
20260507210332 65 58 7.0 10.0 0.00 0.01 0.01 64 1007.7
20260507205829 65 65 8.0 10.0 0.00 0.01 0.01 67 1007.6
20260507205326 65 73 8.0 13.0 0.00 0.01 0.01 67 1007.7
20260507204822 64 43 8.0 12.0 0.00 0.01 0.01 65 1007.5
20260507204319 65 47 9.0 11.0 0.00 0.01 0.01 66 1007.7
20260507203817 65 70 9.0 12.0 0.00 0.01 0.01 65 1007.7
20260507203315 65 111 8.0 14.0 0.00 0.01 0.01 66 1007.7
20260507202811 66 76 7.0 14.0 0.00 0.01 0.01 66 1007.8
20260507202307 65 47 10.0 11.0 0.00 0.01 0.01 64 1007.8
20260507201802 65 47 7.0 7.0 0.00 0.01 0.01 66 1007.8
20260507201258 66 75 7.0 8.0 0.00 0.01 0.01 65 1007.9
20260507200755 65 78 10.0 14.0 0.00 0.01 0.01 65 1007.8
20260507200251 64 63 4.0 6.0 0.00 0.01 0.01 68 1007.8
20260507195747 62 63 4.0 10.0 0.00 0.01 0.01 67 1008.3
20260507195245 63 91 5.0 9.0 0.00 0.01 0.01 67 1008.3
20260507194742 64 117 5.0 6.0 0.00 0.01 0.01 68 1008.4
20260507194238 64 110 3.0 4.0 0.00 0.01 0.01 66 1008.1
20260507193734 64 54 4.0 4.0 0.00 0.01 0.01 67 1008.4
20260507193231 65 114 6.0 11.0 0.00 0.01 0.01 66 1008.4
20260507192727 65 69 7.0 9.0 0.00 0.01 0.01 72 1008.5
20260507192224 64 75 7.0 15.0 0.00 0.01 0.01 71 1008.5
20260507191720 64 98 3.0 12.0 0.00 0.01 0.01 67 1008.6
20260507191218 64 81 6.0 9.0 0.00 0.01 0.01 67 1008.7
20260507190714 65 88 8.0 15.0 0.00 0.01 0.01 67 1008.7
20260507190213 65 151 4.0 10.0 0.00 0.01 0.01 68 1008.7
20260507185711 65 138 2.0 5.0 0.00 0.01 0.01 67 1008.6
20260507185208 64 95 10.0 11.0 0.00 0.01 0.01 68 1008.9
20260507184705 62 135 4.0 5.0 0.00 0.01 0.01 74 1008.9
20260507184203 61 110 6.0 11.0 0.00 0.01 0.01 74 1009.3
20260507183659 60 135 2.0 5.0 0.00 0.01 0.01 73 1009.1
20260507183156 60 104 4.0 7.0 0.00 0.01 0.01 71 1009.1
20260507182654 60 41 3.0 5.0 0.00 0.01 0.01 72 1008.8
20260507182149 60 59 2.0 4.0 0.00 0.01 0.01 73 1009.1
20260507181645 60 98 2.0 6.0 0.00 0.01 0.01 74 1009.4
20260507181142 60 82 3.0 8.0 0.00 0.01 0.01 74 1009.4
20260507180638 61 120 8.0 11.0 0.00 0.01 0.01 74 1009.4
20260507180136 61 130 4.0 4.0 0.00 0.01 0.01 74 1009.5
20260507175631 60 137 3.0 5.0 0.00 0.01 0.01 75 1009.6
20260507175129 60 95 7.0 9.0 0.00 0.01 0.01 74 1009.4
20260507174625 59 114 6.0 6.0 0.00 0.01 0.01 76 1009.5
20260507174124 59 187 2.0 3.0 0.00 0.01 0.01 73 1009.7
20260507173621 59 103 5.0 6.0 0.00 0.01 0.01 75 1009.7
20260507173118 59 168 5.0 6.0 0.00 0.01 0.01 76 1009.9
20260507172613 58 121 0.0 6.0 0.00 0.01 0.01 75 1009.8
20260507172111 59 88 4.0 6.0 0.00 0.01 0.01 77 1010.0
20260507171606 58 47 3.0 3.0 0.00 0.01 0.01 78 1009.9
20260507171103 57 108 3.0 3.0 0.00 0.01 0.01 78 1010.3
20260507170600 58 51 4.0 6.0 0.00 0.01 0.01 78 1010.2
20260507170057 58 117 0.0 1.0 0.00 0.01 0.01 79 1010.3
20260507165553 57 76 2.0 3.0 0.00 0.01 0.01 81 1010.5
20260507165049 57 62 0.0 2.0 0.00 0.01 0.01 80 1010.5
20260507164546 57 71 4.0 6.0 0.00 0.01 0.01 80 1010.8
20260507164043 57 140 2.0 4.0 0.00 0.01 0.01 81 1010.7
20260507163540 56 77 1.0 4.0 0.00 0.01 0.01 82 1010.8
20260507163038 55 271 2.0 2.0 0.00 0.01 0.01 84 1010.6
20260507162532 54 113 0.0 2.0 0.00 0.01 0.01 82 1010.8
20260507162029 55 227 3.0 4.0 0.00 0.01 0.01 82 1010.8
20260507161526 54 228 0.0 4.0 0.00 0.01 0.01 84 1011.0
20260507161023 54 119 0.0 2.0 0.00 0.01 0.01 85 1011.2
20260507160518 53 204 2.0 5.0 0.00 0.01 0.01 86 1011.1
20260507160015 53 275 2.0 5.0 0.00 0.01 0.01 85 1011.2
20260507155510 53 238 3.0 5.0 0.02 0.01 0.01 87 1011.1
20260507155008 53 213 3.0 7.0 0.02 0.01 0.01 86 1011.1
20260507154504 53 252 4.0 6.0 0.00 0.01 0.01 86 1011.2
20260507154001 53 276 2.0 3.0 0.00 0.01 0.01 85 1011.6
20260507153458 53 262 2.0 6.0 0.00 0.01 0.01 85 1011.2
20260507152954 53 259 4.0 4.0 0.00 0.01 0.01 85 1011.2
20260507152450 53 250 4.0 4.0 0.00 0.01 0.01 86 1011.6
20260507151947 53 299 1.0 5.0 0.00 0.01 0.01 87 1011.5
20260507151443 53 330 1.0 6.0 0.00 0.01 0.01 86 1011.5
20260507150940 53 231 2.0 3.0 0.00 0.01 0.01 86 1011.6
20260507150437 53 233 2.0 4.0 0.00 0.01 0.01 87 1011.6
20260507145933 53 246 3.0 3.0 0.00 0.01 0.01 87 1011.4
20260507145429 53 233 4.0 4.0 0.02 0.01 0.01 88 1011.4
20260507144926 53 194 1.0 3.0 0.02 0.01 0.01 87 1011.5
20260507144423 53 231 2.0 2.0 0.00 0.00 0.00 87 1011.4
20260507143920 53 212 2.0 3.0 0.00 0.00 0.00 86 1011.6
20260507143418 53 255 2.0 3.0 0.00 0.00 0.00 85 1011.4
20260507142914 53 228 2.0 4.0 0.00 0.00 0.00 86 1011.1
20260507142410 53 273 0.0 3.0 0.00 0.00 0.00 86 1011.2
20260507141907 53 244 1.0 3.0 0.00 0.00 0.00 86 1011.6
20260507141403 53 239 1.0 2.0 0.00 0.00 0.00 86 1011.5
20260507140900 53 176 1.0 2.0 0.00 0.00 0.00 86 1011.7
20260507140357 53 218 0.0 2.0 0.00 0.00 0.00 86 1011.7
20260507135855 53 17 1.0 3.0 0.00 0.00 0.00 86 1011.9
20260507135351 52 224 0.0 4.0 0.00 0.00 0.00 86 1011.8
20260507134849 52 257 0.0 6.0 0.00 0.00 0.00 86 1011.8
20260507134344 52 253 3.0 6.0 0.00 0.00 0.00 86 1011.8
20260507133841 52 274 1.0 5.0 0.00 0.00 0.00 86 1011.8
20260507133336 52 242 5.0 6.0 0.00 0.00 0.00 86 1011.8
20260507132835 53 242 6.0 6.0 0.00 0.00 0.00 86 1011.7
20260507132331 53 252 3.0 6.0 0.00 0.00 0.00 86 1011.8
20260507131828 53 258 3.0 6.0 0.00 0.00 0.00 86 1012.0
20260507131325 53 274 3.0 8.0 0.00 0.00 0.00 86 1011.5
20260507130823 53 278 6.0 9.0 0.00 0.00 0.00 87 1011.7
20260507130320 52 266 3.0 7.0 0.00 0.00 0.00 87 1011.7
20260507125819 52 311 2.0 9.0 0.00 0.00 0.00 87 1011.8
20260507125316 53 248 7.0 9.0 0.00 0.00 0.00 87 1011.6
20260507124813 53 253 3.0 11.0 0.00 0.00 0.00 87 1011.6
20260507124309 53 255 4.0 11.0 0.00 0.00 0.00 87 1011.6
20260507123808 53 269 7.0 7.0 0.00 0.00 0.00 87 1011.8
20260507123304 53 255 5.0 6.0 0.00 0.00 0.00 87 1011.7
20260507122800 53 227 5.0 6.0 0.00 0.00 0.00 88 1011.8
20260507122255 53 264 5.0 9.0 0.00 0.00 0.00 88 1011.5
20260507121751 53 248 6.0 10.0 0.00 0.00 0.00 88 1011.6
20260507121247 53 236 3.0 9.0 0.00 0.00 0.00 88 1011.6
20260507120743 53 290 3.0 6.0 0.00 0.00 0.00 89 1011.7
20260507120241 53 255 3.0 5.0 0.00 0.00 0.00 89 1011.6
20260507115737 53 249 2.0 5.0 0.00 0.00 0.00 89 1011.7
20260507115233 53 287 2.0 5.0 0.00 0.00 0.00 89 1011.6
20260507114728 53 267 4.0 6.0 0.00 0.00 0.00 90 1011.5
20260507114226 53 264 6.0 6.0 0.00 0.00 0.00 90 1011.4
20260507113723 53 242 6.0 7.0 0.00 0.00 0.00 90 1011.5
20260507113220 53 251 5.0 8.0 0.00 0.00 0.00 90 1011.4
20260507112718 53 283 3.0 9.0 0.00 0.00 0.00 90 1011.5
20260507112210 53 244 7.0 11.0 0.00 0.00 0.00 90 1011.4
20260507111707 53 252 4.0 7.0 0.00 0.00 0.00 90 1011.7
20260507111204 53 295 4.0 6.0 0.00 0.00 0.00 91 1011.0
20260507110659 53 281 1.0 9.0 0.00 0.00 0.00 91 1011.5
20260507110156 53 27 1.0 6.0 0.00 0.00 0.00 91 1011.1
20260507105653 53 289 5.0 7.0 0.00 0.00 0.00 91 1010.9
20260507105149 53 257 6.0 10.0 0.00 0.00 0.00 91 1010.8
20260507104647 53 266 8.0 11.0 0.00 0.00 0.00 92 1010.9
20260507104143 53 269 3.0 9.0 0.00 0.00 0.00 93 1010.7
20260507103639 54 266 5.0 5.0 0.00 0.00 0.00 93 1010.5
20260507103136 54 253 2.0 6.0 0.00 0.00 0.00 94 1010.4
20260507102632 55 316 2.0 3.0 0.00 0.00 0.00 95 1010.4
20260507102128 55 53 2.0 3.0 0.00 0.00 0.00 95 1010.6
20260507101625 55 258 4.0 5.0 0.00 0.00 0.00 95 1010.6
20260507101120 55 309 2.0 4.0 0.00 0.00 0.00 96 1010.5
20260507100618 55 279 2.0 4.0 0.00 0.00 0.00 96 1010.4
20260507100116 55 258 3.0 4.0 0.00 0.00 0.00 96 1010.5
20260507095614 55 256 1.0 2.0 0.00 0.00 0.00 96 1010.6
20260507095110 55 60 0.0 2.0 0.00 0.00 0.00 96 1010.4
20260507094606 55 61 3.0 3.0 0.00 0.00 0.00 96 1010.4
20260507094103 55 12 1.0 2.0 0.00 0.00 0.00 96 1010.2
20260507093601 55 60 2.0 2.0 0.00 0.00 0.00 96 1010.7
20260507093059 55 77 1.0 2.0 0.00 0.00 0.00 96 1010.5
20260507092555 55 97 2.0 4.0 0.00 0.00 0.00 96 1010.3
20260507092051 55 128 3.0 6.0 0.00 0.00 0.00 96 1010.6
20260507091548 55 101 2.0 2.0 0.00 0.00 0.00 96 1010.4
20260507091039 55 103 1.0 2.0 0.00 0.00 0.00 96 1010.1
20260507090535 55 95 0.0 2.0 0.00 0.00 0.00 96 1010.4
20260507090032 55 125 2.0 3.0 0.00 0.00 0.00 95 1010.5
20260507085529 55 104 2.0 2.0 0.00 0.00 0.00 95 1010.7
20260507085026 55 127 0.0 2.0 0.00 0.00 0.00 95 1010.6
20260507084522 55 114 0.0 4.0 0.00 0.00 0.00 95 1010.7
20260507084019 55 42 4.0 5.0 0.00 0.00 0.00 95 1010.6
20260507083516 55 67 2.0 3.0 0.00 0.00 0.00 94 1010.3
20260507083013 55 88 3.0 4.0 0.00 0.00 0.00 94 1010.2
20260507082509 55 89 3.0 3.0 0.00 0.00 0.00 94 1010.1
20260507082005 56 50 0.0 0.0 0.00 0.00 0.00 94 1010.0
20260507081502 56 53 2.0 2.0 0.00 0.00 0.00 93 1009.9
20260507080958 56 75 2.0 2.0 0.00 0.00 0.00 93 1010.0
20260507080454 56 123 2.0 2.0 0.00 0.00 0.00 93 1010.1
20260507075950 57 59 0.0 2.0 0.00 0.00 0.00 93 1010.2
20260507075447 57 77 0.0 2.0 0.00 0.00 0.00 93 1010.3
20260507074943 57 46 3.0 3.0 0.00 0.00 0.00 93 1010.2
20260507074440 57 39 3.0 4.0 0.00 0.00 0.00 92 1010.3
20260507073938 57 65 1.0 1.0 0.00 0.00 0.00 92 1010.3
20260507073434 57 63 1.0 2.0 0.00 0.00 0.00 92 1010.2
20260507072931 58 76 3.0 3.0 0.00 0.00 0.00 91 1010.0
20260507072428 58 95 2.0 4.0 0.00 0.00 0.00 91 1010.4
20260507071926 58 94 4.0 5.0 0.00 0.00 0.00 91 1010.2
20260507071422 58 68 3.0 4.0 0.00 0.00 0.00 92 1010.4
20260507070918 58 84 3.0 4.0 0.00 0.00 0.00 92 1010.1
20260507070416 58 88 4.0 5.0 0.00 0.00 0.00 91 1010.3
20260507065912 58 81 3.0 4.0 0.00 0.00 0.00 91 1009.9
20260507065409 58 108 2.0 3.0 0.00 0.00 0.00 90 1009.6
20260507064906 59 99 1.0 2.0 0.00 0.00 0.00 90 1010.1
20260507064405 59 22 2.0 4.0 0.00 0.00 0.00 90 1009.8
20260507063902 59 71 3.0 3.0 0.00 0.00 0.00 89 1010.1
20260507063359 59 36 3.0 5.0 0.00 0.00 0.00 88 1010.0
20260507062856 59 76 3.0 4.0 0.00 0.00 0.00 87 1009.8
20260507062353 60 140 4.0 5.0 0.00 0.00 0.00 86 1010.0
20260507061851 60 144 7.0 8.0 0.00 0.00 0.00 85 1009.8
20260507061348 60 94 11.0 11.0 0.00 0.00 0.00 87 1010.1
20260507060847 60 93 6.0 13.0 0.00 0.00 0.00 89 1010.2
20260507060343 60 99 8.0 13.0 0.00 0.00 0.00 91 1010.1
20260507055841 60 80 6.0 8.0 0.00 0.00 0.00 91 1010.0
20260507055340 60 89 6.0 9.0 0.00 0.00 0.00 91 1010.2
20260507054838 60 102 5.0 5.0 0.00 0.00 0.00 91 1010.5
20260507054334 60 81 7.0 10.0 0.00 0.00 0.00 92 1010.6
20260507053831 60 67 5.0 9.0 0.00 0.00 0.00 93 1010.6
20260507053329 60 88 5.0 6.0 0.00 0.00 0.00 94 1010.6
20260507052827 60 96 6.0 9.0 0.00 0.00 0.00 95 1010.7
20260507052324 59 89 5.0 6.0 0.00 0.00 0.00 95 1011.0
20260507051822 59 101 6.0 6.0 0.00 0.00 0.00 95 1010.8
20260507051319 59 67 4.0 4.0 0.00 0.00 0.00 95 1010.9
20260507050816 59 80 5.0 5.0 0.00 0.00 0.00 94 1010.6
20260507050312 59 74 3.0 4.0 0.00 0.00 0.00 94 1010.5
20260507045809 59 66 3.0 4.0 0.00 0.00 0.00 94 1010.3
20260507045306 59 87 4.0 5.0 0.00 0.00 0.00 93 1010.2
20260507044802 59 88 4.0 4.0 0.00 0.00 0.00 93 1009.9
20260507044259 59 91 2.0 4.0 0.00 0.00 0.00 93 1010.0
20260507043755 60 124 5.0 6.0 0.02 0.00 0.00 92 1010.0
20260507043252 60 155 4.0 6.0 0.02 0.00 0.00 91 1009.3
20260507042748 60 89 0.0 3.0 0.00 0.00 0.00 90 1009.4
20260507042243 61 114 2.0 4.0 0.00 0.00 0.00 90 1009.1
20260507041741 61 55 2.0 3.0 0.00 0.00 0.00 89 1009.2
20260507041237 61 57 4.0 6.0 0.00 0.00 0.00 89 1010.0
20260507040735 61 52 6.0 8.0 0.00 0.00 0.00 90 1009.9
20260507040230 61 36 4.0 5.0 0.00 0.00 0.00 91 1010.3
20260507035727 61 63 4.0 7.0 0.00 0.07 0.07 91 1010.7
20260507035222 61 97 7.0 8.0 0.02 0.07 0.07 91 1010.6
20260507034720 61 75 4.0 5.0 0.07 0.07 0.07 91 1010.1
20260507034217 62 44 3.0 4.0 0.09 0.07 0.07 91 1010.1
20260507033715 62 100 4.0 6.0 0.07 0.06 0.06 91 1010.7
20260507033212 62 92 5.0 6.0 0.02 0.05 0.05 90 1010.9
20260507032710 62 71 4.0 5.0 0.02 0.05 0.05 89 1010.7
20260507032205 62 93 3.0 5.0 0.00 0.04 0.04 89 1011.0
20260507031702 63 85 3.0 6.0 0.00 0.04 0.04 88 1010.9
20260507031159 63 72 5.0 5.0 0.00 0.04 0.04 88 1010.8
20260507030656 63 27 4.0 5.0 0.00 0.04 0.04 87 1010.7
20260507030154 63 71 3.0 6.0 0.00 0.04 0.04 87 1010.7
20260507025651 63 85 4.0 6.0 0.00 0.04 0.04 86 1010.7
20260507025147 63 86 5.0 6.0 0.00 0.04 0.04 85 1010.6
20260507024646 63 43 5.0 12.0 0.00 0.04 0.04 85 1010.6
20260507024142 64 51 6.0 6.0 0.00 0.04 0.04 85 1010.3
20260507023638 64 106 8.0 9.0 0.00 0.04 0.04 85 1010.4